sat.trackr.live / text

‹ back to catalog

STARLINK-34561

NORAD 65081 · 2025-167D

PAYLOAD ACTIVE UNKNOWN

§ Identity

Operator
Country
US
Launch date
2025-08-04
Launch site
AFETR
Launch vehicle
Mass (kg)
RCS (m²)

Purposes: comms

External: N2YO · Heavens-Above · Gunter

§ Orbital elements

Epoch: 2026-09-20T12:30:39.436128Z

Period
93.85 min
Inclination
53.1577°
Eccentricity
0.0000487
Mean motion
15.34400804 rev/d
Perigee alt
462.4 km
Apogee alt
463.0 km
Semi-major
6,840.8 km
B*
7.7050e-4
RAAN
197.8870°
Arg perigee
89.4976°
Mean anomaly
270.6083°
Rev number
6,461

§ Raw data

STARLINK-345611 65081U 25167D   26263.52128977  .00025746  00000+0  77050-3 0  99962 65081  53.1577 197.8870 0000487  89.4976 270.6083 15.34400804 64614

JSON: /api/v1/satellites/65081 · /tle

For live sub-satellite position, see the globe view (requires WebGL).

§ Visibility from observer

Set your observer location to see the next 7 days of passes ≥ 10°. The values pass through the URL so the page stays shareable.

No JS? Fill the form by hand. The geolocation button needs JavaScript.